| time (UTC) | temp C | wind direction | speed KPH | gust KPH | rain 1hr cm | rain 24hr cm | rain mn cm | humidity % | barometer mb |
| 20260507163028 | 16 | 336 | 29.0 | 45.1 | 0.00 | 0.00 | 0.00 | 42 | 1012.0 |
| 20260507161531 | 16 | 336 | 17.7 | 32.2 | 0.00 | 0.00 | 0.00 | 41 | 1012.0 |
| 20260507160035 | 16 | 306 | 19.3 | 27.4 | 0.00 | 0.00 | 0.00 | 43 | 1012.0 |
| 20260507154531 | 16 | 326 | 16.1 | 27.4 | 0.00 | 0.00 | 0.00 | 44 | 1012.0 |
| 20260507153033 | 15 | 286 | 12.9 | 22.5 | 0.00 | 0.00 | 0.00 | 47 | 1012.0 |
| 20260507151530 | 14 | 309 | 11.3 | 16.1 | 0.00 | 0.00 | 0.00 | 49 | 1012.1 |
| 20260507150030 | 13 | 290 | 8.0 | 12.9 | 0.00 | 0.00 | 0.00 | 53 | 1012.2 |
| 20260507144534 | 11 | 288 | 3.2 | 8.0 | 0.00 | 0.00 | 0.00 | 55 | 1012.2 |
| 20260507143034 | 11 | 36 | 4.8 | 17.7 | 0.00 | 0.00 | 0.00 | 55 | 1012.1 |
| 20260507141531 | 11 | 32 | 8.0 | 12.9 | 0.00 | 0.00 | 0.00 | 56 | 1012.2 |
| 20260507140030 | 11 | 14 | 9.7 | 14.5 | 0.00 | 0.00 | 0.00 | 56 | 1012.0 |
| 20260507134530 | 10 | 296 | 4.8 | 8.0 | 0.00 | 0.00 | 0.00 | 57 | 1012.0 |
| 20260507133032 | 9 | 296 | 4.8 | 17.7 | 0.00 | 0.00 | 0.00 | 59 | 1011.8 |
| 20260507131539 | 8 | 287 | 11.3 | 16.1 | 0.00 | 0.00 | 0.00 | 59 | 1011.7 |
| 20260507130029 | 7 | 275 | 9.7 | 16.1 | 0.00 | 0.00 | 0.00 | 59 | 1011.4 |
| 20260507124532 | 6 | 295 | 9.7 | 16.1 | 0.00 | 0.00 | 0.00 | 57 | 1011.4 |
| 20260507123029 | 5 | 279 | 11.3 | 16.1 | 0.00 | 0.00 | 0.00 | 55 | 1011.1 |
| 20260507121528 | 5 | 267 | 11.3 | 14.5 | 0.00 | 0.00 | 0.00 | 54 | 1010.9 |
| 20260507120030 | 5 | 290 | 11.3 | 14.5 | 0.00 | 0.00 | 0.00 | 54 | 1010.9 |
| 20260507114531 | 5 | 292 | 9.7 | 12.9 | 0.00 | 0.00 | 0.00 | 53 | 1010.8 |
| 20260507113034 | 6 | 253 | 8.0 | 12.9 | 0.00 | 0.00 | 0.00 | 49 | 1010.7 |
| 20260507111533 | 5 | 285 | 11.3 | 14.5 | 0.00 | 0.00 | 0.00 | 53 | 1010.4 |
| 20260507110032 | 6 | 298 | 11.3 | 14.5 | 0.00 | 0.00 | 0.00 | 52 | 1010.3 |
| 20260507104531 | 6 | 360 | 6.4 | 9.7 | 0.00 | 0.00 | 0.00 | 55 | 1010.3 |
| 20260507103028 | 6 | 325 | 8.0 | 12.9 | 0.00 | 0.00 | 0.00 | 56 | 1010.2 |
| 20260507101552 | 5 | 321 | 11.3 | 17.7 | 0.00 | 0.00 | 0.00 | 57 | 1010.2 |
| 20260507100035 | 5 | 12 | 12.9 | 25.7 | 0.00 | 0.00 | 0.00 | 61 | 1010.1 |
| 20260507094531 | 5 | 316 | 12.9 | 19.3 | 0.00 | 0.00 | 0.00 | 58 | 1010.0 |
| 20260507093032 | 5 | 339 | 6.4 | 12.9 | 0.00 | 0.00 | 0.00 | 60 | 1009.8 |
| 20260507091548 | 5 | 12 | 9.7 | 12.9 | 0.00 | 0.00 | 0.00 | 59 | 1010.0 |
| 20260507090029 | 5 | 355 | 9.7 | 14.5 | 0.00 | 0.00 | 0.00 | 62 | 1009.9 |
| 20260507084529 | 5 | 22 | 12.9 | 19.3 | 0.00 | 0.00 | 0.00 | 65 | 1009.2 |
| 20260507083031 | 6 | 22 | 16.1 | 20.9 | 0.00 | 0.00 | 0.00 | 65 | 1009.4 |
| 20260507081547 | 7 | 24 | 17.7 | 25.7 | 0.00 | 0.00 | 0.00 | 61 | 1009.4 |
| 20260507080031 | 7 | 30 | 3.2 | 9.7 | 0.00 | 0.00 | 0.00 | 57 | 1009.3 |
| 20260507074536 | 7 | 28 | 8.0 | 12.9 | 0.00 | 0.00 | 0.00 | 55 | 1009.2 |
| 20260507073030 | 7 | 55 | 4.8 | 9.7 | 0.00 | 0.00 | 0.00 | 57 | 1009.0 |
| 20260507071531 | 7 | 65 | 6.4 | 12.9 | 0.00 | 0.00 | 0.00 | 57 | 1009.0 |
| 20260507070030 | 7 | 76 | 9.7 | 17.7 | 0.00 | 0.00 | 0.00 | 56 | 1008.9 |
| 20260507064530 | 8 | 55 | 11.3 | 20.9 | 0.00 | 0.00 | 0.00 | 55 | 1008.7 |
| 20260507063030 | 9 | 65 | 19.3 | 25.7 | 0.00 | 0.00 | 0.00 | 53 | 1008.6 |
| 20260507061533 | 9 | 65 | 16.1 | 24.1 | 0.00 | 0.00 | 0.00 | 54 | 1008.6 |
| 20260507060032 | 11 | 54 | 16.1 | 29.0 | 0.00 | 0.00 | 0.00 | 47 | 1008.7 |
| 20260507054531 | 12 | 40 | 30.6 | 37.0 | 0.00 | 0.00 | 0.00 | 36 | 1008.7 |
| 20260507053030 | 12 | 71 | 16.1 | 22.5 | 0.00 | 0.00 | 0.00 | 36 | 1008.0 |
| 20260507051532 | 12 | 55 | 20.9 | 29.0 | 0.00 | 0.00 | 0.00 | 34 | 1008.0 |
| 20260507050034 | 13 | 80 | 19.3 | 22.5 | 0.00 | 0.00 | 0.00 | 32 | 1007.7 |
| 20260507044542 | 12 | 99 | 12.9 | 16.1 | 0.00 | 0.00 | 0.00 | 33 | 1007.8 |
| 20260507043037 | 13 | 98 | 9.7 | 17.7 | 0.00 | 0.00 | 0.00 | 32 | 1007.7 |
| 20260507041532 | 15 | 69 | 14.5 | 20.9 | 0.00 | 0.00 | 0.00 | 29 | 1007.7 |
| 20260507040030 | 15 | 118 | 12.9 | 25.7 | 0.00 | 0.00 | 0.00 | 29 | 1007.6 |
| 20260507034532 | 15 | 118 | 12.9 | 20.9 | 0.00 | 0.00 | 0.00 | 28 | 1007.8 |
| 20260507033030 | 16 | 0 | 3.2 | 27.4 | 0.00 | 0.00 | 0.00 | 28 | 1008.0 |
| 20260507031530 | 14 | 178 | 6.4 | 12.9 | 0.00 | 0.00 | 0.00 | 30 | 1007.6 |
| 20260507030037 | 15 | 126 | 11.3 | 16.1 | 0.00 | 0.00 | 0.00 | 30 | 1007.3 |
| 20260507024534 | 15 | 123 | 12.9 | 14.5 | 0.00 | 0.00 | 0.00 | 29 | 1007.2 |
| 20260507023033 | 16 | 107 | 9.7 | 11.3 | 0.00 | 0.00 | 0.00 | 27 | 1007.1 |
| 20260507021529 | 17 | 87 | 6.4 | 17.7 | 0.00 | 0.00 | 0.00 | 26 | 1007.1 |
| 20260507020033 | 18 | 355 | 4.8 | 8.0 | 0.00 | 0.00 | 0.00 | 24 | 1007.0 |
| 20260507014535 | 19 | 327 | 3.2 | 9.7 | 0.00 | 0.00 | 0.00 | 24 | 1007.2 |
| 20260507013035 | 19 | 316 | 3.2 | 8.0 | 0.00 | 0.00 | 0.00 | 24 | 1007.1 |
| 20260507011533 | 19 | 345 | 11.3 | 24.1 | 0.00 | 0.00 | 0.00 | 23 | 1007.2 |
| 20260507010032 | 20 | 346 | 14.5 | 30.6 | 0.00 | 0.00 | 0.00 | 23 | 1007.2 |
| 20260507004532 | 21 | 343 | 17.7 | 30.6 | 0.00 | 0.00 | 0.00 | 22 | 1007.4 |
| 20260507003028 | 21 | 28 | 25.7 | 37.0 | 0.00 | 0.00 | 0.00 | 22 | 1007.5 |
| 20260507001534 | 21 | 350 | 16.1 | 29.0 | 0.00 | 0.00 | 0.00 | 23 | 1007.4 |
| 20260507000033 | 20 | 355 | 14.5 | 25.7 | 0.00 | 0.00 | 0.00 | 24 | 1007.4 |
| 20260506234533 | 20 | 22 | 14.5 | 29.0 | 0.00 | 0.00 | 0.00 | 24 | 1007.3 |
| 20260506233032 | 20 | 328 | 9.7 | 22.5 | 0.00 | 0.00 | 0.00 | 23 | 1007.4 |
| 20260506231533 | 20 | 344 | 11.3 | 20.9 | 0.00 | 0.00 | 0.00 | 24 | 1007.6 |
| 20260506230028 | 20 | 270 | 9.7 | 20.9 | 0.00 | 0.00 | 0.00 | 24 | 1007.8 |
| 20260506224534 | 19 | 311 | 9.7 | 24.1 | 0.00 | 0.00 | 0.00 | 23 | 1008.0 |
| 20260506223036 | 18 | 275 | 12.9 | 22.5 | 0.00 | 0.00 | 0.00 | 23 | 1008.4 |
| 20260506221533 | 18 | 273 | 9.7 | 19.3 | 0.00 | 0.00 | 0.00 | 23 | 1008.8 |
| 20260506220036 | 18 | 300 | 14.5 | 29.0 | 0.00 | 0.00 | 0.00 | 23 | 1009.0 |
| 20260506214531 | 18 | 277 | 19.3 | 27.4 | 0.00 | 0.00 | 0.00 | 23 | 1009.4 |
| 20260506213030 | 17 | 243 | 17.7 | 27.4 | 0.00 | 0.00 | 0.00 | 24 | 1009.4 |
| 20260506211532 | 17 | 324 | 16.1 | 30.6 | 0.00 | 0.00 | 0.00 | 24 | 1009.7 |
| 20260506210032 | 17 | 294 | 14.5 | 24.1 | 0.00 | 0.00 | 0.00 | 25 | 1010.0 |
| 20260506204532 | 16 | 312 | 16.1 | 29.0 | 0.00 | 0.00 | 0.00 | 25 | 1010.2 |
| 20260506203030 | 16 | 249 | 14.5 | 27.4 | 0.00 | 0.00 | 0.00 | 26 | 1010.5 |
| 20260506201541 | 15 | 234 | 8.0 | 20.9 | 0.00 | 0.00 | 0.00 | 25 | 1010.7 |
| 20260506200032 | 15 | 292 | 12.9 | 25.7 | 0.00 | 0.00 | 0.00 | 25 | 1010.9 |
| 20260506194534 | 14 | 292 | 9.7 | 33.8 | 0.00 | 0.00 | 0.00 | 27 | 1011.1 |
| 20260506193030 | 13 | 254 | 17.7 | 35.4 | 0.00 | 0.00 | 0.00 | 26 | 1011.4 |
| 20260506191532 | 13 | 232 | 12.9 | 20.9 | 0.00 | 0.00 | 0.00 | 25 | 1011.6 |
| 20260506190029 | 13 | 204 | 16.1 | 37.0 | 0.00 | 0.00 | 0.00 | 27 | 1012.0 |
| 20260506184536 | 12 | 178 | 17.7 | 37.0 | 0.00 | 0.00 | 0.00 | 25 | 1012.3 |
| 20260506183031 | 12 | 221 | 12.9 | 27.4 | 0.00 | 0.00 | 0.00 | 26 | 1012.6 |
| 20260506181530 | 11 | 196 | 12.9 | 27.4 | 0.00 | 0.00 | 0.00 | 26 | 1012.7 |
| 20260506180032 | 11 | 165 | 16.1 | 32.2 | 0.00 | 0.00 | 0.00 | 28 | 1013.1 |
| 20260506174532 | 10 | 203 | 16.1 | 25.7 | 0.00 | 0.00 | 0.00 | 27 | 1013.4 |
| 20260506173035 | 10 | 207 | 16.1 | 29.0 | 0.00 | 0.00 | 0.00 | 28 | 1013.6 |
| 20260506171539 | 9 | 211 | 12.9 | 27.4 | 0.00 | 0.00 | 0.00 | 31 | 1014.0 |
| 20260506170029 | 9 | 196 | 16.1 | 29.0 | 0.00 | 0.00 | 0.00 | 33 | 1014.4 |
| 20260506164532 | 8 | 169 | 16.1 | 30.6 | 0.00 | 0.00 | 0.00 | 36 | 1014.4 |